Fort Smith, AR

3:33 PM CDT on March 29, 2017 (GMT -0500)
Fort Smith Regional

Weather History for KFSM - October, 2012

Change the Weather History Date:

Friday, October 26, 2012

  Actual Average Record
Temperature  
Mean Temperature 49 °F 60 °F  
Max Temperature 57 °F 72 °F 90 °F (1891)
Min Temperature 41 °F 48 °F 30 °F (1994)
Degree Days  
Heating Degree Days 16 7  
Month to date heating degree days 89 100  
Since 1 July heating degree days 89 117  
Cooling Degree Days 0 1  
Month to date cooling degree days 74 62  
Year to date cooling degree days 2866 2040  
Growing Degree Days 1 (Base 50)    
Moisture  
Dew Point 35 °F    
Average Humidity 55    
Maximum Humidity 71    
Minimum Humidity 39    
Precipitation  
Precipitation 0.00 in 0.15 in 2.91 in (1939)
Month to date precipitation 2.65 3.61  
Year to date precipitation 30.90 37.02  
Sea Level Pressure  
Sea Level Pressure 30.25 in    
Wind  
Wind Speed 11 mph (North)    
Max Wind Speed 20 mph    
Max Gust Speed 23 mph    
Visibility 10 miles    
Events      
T = Trace of Precipitation, MM = Missing Value Source: NWS Daily Summary

Daily Weather History Graph

Daily Weather History Graph

Search for Another Location

Airport or City:

Trip Planner

Search our weather history database for the weather conditions in past years. The results will help you decide how hot, cold, wet, or windy it might be!

Date:

Astronomy

Oct. 26, 2012 Rise Set
Actual Time 7:33 AM CDT 6:28 PM CDT
Civil Twilight 7:07 AM CDT 6:54 PM CDT
Nautical Twilight 6:37 AM CDT 7:24 PM CDT
Astronomical Twilight 6:08 AM CDT 7:53 PM CDT
Moon 4:40 PM CDT (10/26) 4:36 AM CDT (10/26)
Length of Visible Light 11h 46m
Length of Day
10h 54m
Waxing Gibbous, 91% of the Moon is Illuminated
Oct 26
Waxing Gibbous
Oct 29
Full
Nov 6
Last Quarter
Nov 13
New
Nov 20
First Quarter

Hourly Weather History & Observations

Time (CDT) Temp. Windchill Dew Point Humidity Pressure Visibility Wind Dir Wind Speed Gust Speed Precip Events Conditions
12:53 AM 50.0 °F - 39.9 °F 68% 30.15 in 10.0 mi North 10.4 mph - N/A   Overcast
1:53 AM 48.9 °F - 39.0 °F 69% 30.16 in 10.0 mi North 11.5 mph - N/A   Overcast
2:25 AM 48.2 °F - 39.2 °F 71% 30.17 in 10.0 mi North 8.1 mph - N/A   Partly Cloudy
2:53 AM 48.0 °F - 39.0 °F 71% 30.17 in 10.0 mi North 9.2 mph - N/A   Clear
3:53 AM 46.9 °F - 37.9 °F 71% 30.18 in 10.0 mi North 10.4 mph - N/A   Clear
4:53 AM 46.0 °F 42.5 °F 37.0 °F 71% 30.19 in 10.0 mi North 6.9 mph - N/A   Clear
5:53 AM 46.0 °F 43.1 °F 37.0 °F 71% 30.21 in 10.0 mi North 5.8 mph - N/A   Mostly Cloudy
6:53 AM 46.9 °F - 37.0 °F 68% 30.21 in 10.0 mi NE 9.2 mph - N/A   Clear
7:53 AM 46.4 °F 41.9 °F 37.4 °F 71% 30.22 in 10.0 mi North 9.2 mph - N/A   Clear
8:53 AM 48.9 °F - 36.0 °F 61% 30.25 in 10.0 mi North 12.7 mph - N/A   Clear
9:53 AM 50.0 °F - 35.1 °F 57% 30.29 in 10.0 mi North 17.3 mph - N/A   Partly Cloudy
10:53 AM 52.0 °F - 36.0 °F 54% 30.30 in 10.0 mi North 11.5 mph - N/A   Mostly Cloudy
11:53 AM 53.1 °F - 34.0 °F 48% 30.30 in 10.0 mi North 15.0 mph 21.9 mph N/A   Mostly Cloudy
12:53 PM 53.1 °F - 34.0 °F 48% 30.29 in 10.0 mi NNW 16.1 mph 23.0 mph N/A   Mostly Cloudy
1:53 PM 53.1 °F - 33.1 °F 47% 30.28 in 10.0 mi North 11.5 mph 23.0 mph N/A   Overcast
2:53 PM 55.9 °F - 33.1 °F 42% 30.27 in 10.0 mi North 12.7 mph 19.6 mph N/A   Clear
3:53 PM 57.0 °F - 32.0 °F 39% 30.25 in 10.0 mi NNW 16.1 mph 23.0 mph N/A   Clear
4:53 PM 55.0 °F - 32.0 °F 42% 30.25 in 10.0 mi North 13.8 mph - N/A   Clear
5:53 PM 53.1 °F - 32.0 °F 45% 30.26 in 10.0 mi North 15.0 mph - N/A   Clear
6:53 PM 50.0 °F - 32.0 °F 50% 30.27 in 10.0 mi NNW 11.5 mph - N/A   Clear
7:53 PM 48.9 °F - 32.0 °F 52% 30.30 in 10.0 mi North 9.2 mph - N/A   Clear
8:53 PM 46.9 °F - 32.0 °F 56% 30.31 in 10.0 mi North 8.1 mph - N/A   Clear
9:53 PM 45.0 °F 40.1 °F 32.0 °F 60% 30.32 in 10.0 mi North 9.2 mph - N/A   Clear
10:53 PM 45.0 °F 40.6 °F 30.9 °F 58% 30.33 in 10.0 mi North 8.1 mph - N/A   Clear
11:53 PM 43.0 °F 38.8 °F 30.9 °F 62% 30.33 in 10.0 mi North 6.9 mph - N/A   Clear